JH4GLG-13 Weather Reports


time (UTC)temp
C
wind
direction
speed
KPH
gust
KPH
rain 1hr
cm
rain 24hr
cm
rain mn
cm
humidity
%
barometer
mb
20260509101211 19 0 0.0 0.0 0.00 0.00 0.00 49 1017.4
20260509095711 20 0 0.0 0.0 0.00 0.00 0.00 46 1017.4
20260509094211 20 0 0.0 0.0 0.00 0.00 0.00 41 1017.2
20260509092711 21 0 0.0 0.0 0.00 0.00 0.00 39 1016.9
20260509091211 21 0 0.0 0.0 0.00 0.00 0.00 36 1016.9
20260509085711 21 0 0.0 0.0 0.00 0.00 0.00 34 1016.9
20260509084210 21 0 0.0 0.0 0.00 0.00 0.00 33 1016.9
20260509082711 21 0 0.0 0.0 0.00 0.00 0.00 34 1016.6
20260509081215 21 0 0.0 0.0 0.00 0.00 0.00 35 1016.6
20260509075715 21 0 0.0 0.0 0.00 0.00 0.00 35 1016.4
20260509075711 21 0 0.0 0.0 0.00 0.00 0.00 35 1016.5
20260509074210 22 0 0.0 0.0 0.00 0.00 0.00 35 1016.4
20260509072711 22 0 0.0 0.0 0.00 0.00 0.00 35 1016.3
20260509071218 22 0 0.0 0.0 0.00 0.00 0.00 36 1016.1
20260509065710 22 0 0.0 0.0 0.00 0.00 0.00 36 1016.3
20260509064210 22 0 0.0 0.0 0.00 0.00 0.00 36 1016.5
20260509062710 21 0 0.0 0.0 0.00 0.00 0.00 36 1016.6
20260509061219 21 0 0.0 0.0 0.00 0.00 0.00 37 1016.7
20260509054209 21 0 0.0 0.0 0.00 0.00 0.00 38 1016.8
20260509052714 21 0 0.0 0.0 0.00 0.00 0.00 39 1016.8
20260509052710 21 0 0.0 0.0 0.00 0.00 0.00 39 1016.9
20260509051225 21 0 0.0 0.0 0.00 0.00 0.00 38 1016.9
20260509045710 21 0 0.0 0.0 0.00 0.00 0.00 40 1017.0
20260509044209 21 0 0.0 0.0 0.00 0.00 0.00 40 1017.2
20260509042709 21 0 0.0 0.0 0.00 0.00 0.00 41 1017.4
20260509041208 21 0 0.0 0.0 0.00 0.00 0.00 41 1017.5
20260509035709 21 0 0.0 0.0 0.00 0.00 0.00 44 1017.6
20260509034208 21 0 0.0 0.0 0.00 0.00 0.00 43 1017.9
20260509032709 20 0 0.0 0.0 0.00 0.00 0.00 45 1018.0
20260509031208 21 0 0.0 0.0 0.00 0.00 0.00 44 1018.2
20260509025709 21 0 0.0 0.0 0.00 0.00 0.00 47 1018.3
20260509024208 20 0 0.0 0.0 0.00 0.00 0.00 47 1018.4
20260509022708 20 0 0.0 0.0 0.00 0.00 0.00 47 1018.5
20260509021207 20 0 0.0 0.0 0.00 0.00 0.00 49 1018.7
20260509015708 20 0 0.0 0.0 0.00 0.00 0.00 45 1018.9
20260509014207 20 0 0.0 0.0 0.00 0.00 0.00 43 1019.0
20260509012708 20 0 0.0 0.0 0.00 0.00 0.00 44 1019.1
20260509011206 20 0 0.0 0.0 0.00 0.00 0.00 45 1019.1
20260509005708 20 0 0.0 0.0 0.00 0.00 0.00 47 1019.3
20260509004207 20 0 0.0 0.0 0.00 0.00 0.00 44 1019.2
20260509002708 21 0 0.0 0.0 0.00 0.00 0.00 41 1019.2
20260509001207 21 0 0.0 0.0 0.00 0.00 0.00 43 1019.2
20260508235708 20 0 0.0 0.0 0.00 0.00 0.00 44 1019.2
20260508234206 20 0 0.0 0.0 0.00 0.00 0.00 48 1019.3
20260508232707 18 0 0.0 0.0 0.00 0.00 0.00 49 1019.4
20260508231206 18 0 0.0 0.0 0.00 0.00 0.00 49 1019.2
20260508225707 18 0 0.0 0.0 0.00 0.00 0.00 52 1019.3
20260508224206 18 0 0.0 0.0 0.00 0.00 0.00 53 1019.1
20260508222706 17 0 0.0 0.0 0.00 0.00 0.00 56 1019.1
20260508221206 17 0 0.0 0.0 0.00 0.00 0.00 63 1019.1
20260508215706 16 0 0.0 0.0 0.00 0.00 0.00 67 1018.9
20260508214206 15 0 0.0 0.0 0.00 0.00 0.00 72 1018.8
20260508212706 -17 0 0.0 0.0 0.00 0.00 0.00 1018.8
20260508211205 12 0 0.0 0.0 0.00 0.00 0.00 76 1018.7
20260508205706 12 0 0.0 0.0 0.00 0.00 0.00 79 1018.5
20260508204205 11 0 0.0 0.0 0.00 0.00 0.00 80 1018.4
20260508202706 11 0 0.0 0.0 0.00 0.00 0.00 79 1018.3
20260508201205 11 0 0.0 0.0 0.00 0.00 0.00 78 1018.2
20260508195706 11 0 0.0 0.0 0.00 0.00 0.00 78 1018.2
20260508194205 11 0 0.0 0.0 0.00 0.00 0.00 78 1017.9
20260508192810 12 0 0.0 0.0 0.00 0.00 0.00 76 1017.8
20260508192705 12 0 0.0 0.0 0.00 0.00 0.00 76 1017.8
20260508191204 12 0 0.0 0.0 0.00 0.00 0.00 77 1017.5
20260508185706 12 0 0.0 0.0 0.00 0.00 0.00 76 1017.3
20260508184204 12 0 0.0 0.0 0.00 0.00 0.00 76 1017.3
20260508182706 12 0 0.0 0.0 0.00 0.00 0.00 76 1016.9
20260508181204 12 0 0.0 0.0 0.00 0.00 0.00 75 1016.7
20260508175704 12 0 0.0 0.0 0.00 0.00 0.00 74 1016.5
20260508174204 13 0 0.0 0.0 0.00 0.00 0.00 73 1016.4
20260508172704 13 0 0.0 0.0 0.00 0.00 0.00 73 1016.3
20260508171204 13 0 0.0 0.0 0.00 0.00 0.00 71 1016.3
20260508165704 13 0 0.0 0.0 0.00 0.00 0.00 72 1016.2
20260508164203 13 0 0.0 0.0 0.00 0.00 0.00 70 1016.1
20260508162704 13 0 0.0 0.0 0.00 0.00 0.00 70 1016.1
20260508161203 13 0 0.0 0.0 0.00 0.00 0.00 68 1016.0
20260508155704 14 0 0.0 0.0 0.00 0.00 0.00 69 1016.1
20260508154202 14 0 0.0 0.0 0.00 0.00 0.00 68 1016.0
20260508152708 14 0 0.0 0.0 0.00 0.00 0.00 68 1015.8
20260508152703 -17 0 0.0 0.0 0.00 0.00 0.00 1015.8
20260508151203 15 0 0.0 0.0 0.00 0.00 0.00 67 1015.6
20260508145703 15 0 0.0 0.0 0.00 0.00 0.00 66 1015.5
20260508144203 15 0 0.0 0.0 0.00 0.00 0.00 66 1015.5
20260508142703 15 0 0.0 0.0 0.00 0.00 0.00 64 1015.4
20260508141202 15 0 0.0 0.0 0.00 0.00 0.00 65 1015.4
20260508135703 15 0 0.0 0.0 0.00 0.00 0.00 64 1015.1
20260508134202 16 0 0.0 0.0 0.00 0.00 0.00 62 1015.0
20260508132703 16 0 0.0 0.0 0.00 0.00 0.00 61 1014.9
20260508131202 16 0 0.0 0.0 0.00 0.00 0.00 61 1014.8
20260508125702 16 0 0.0 0.0 0.00 0.00 0.00 60 1014.8
20260508124202 17 0 0.0 0.0 0.00 0.00 0.00 58 1014.7
20260508122702 17 0 0.0 0.0 0.00 0.00 0.00 56 1014.3
20260508121201 17 0 0.0 0.0 0.00 0.00 0.00 56 1014.3
20260508115702 17 0 0.0 0.0 0.00 0.00 0.00 58 1014.1
20260508114201 17 0 0.0 0.0 0.00 0.00 0.00 57 1013.8
20260508112702 18 0 0.0 0.0 0.00 0.00 0.00 56 1013.6
20260508111200 18 0 0.0 0.0 0.00 0.00 0.00 55 1013.5
20260508105702 18 0 0.0 0.0 0.00 0.00 0.00 53 1013.3
20260508104201 18 0 0.0 0.0 0.00 0.00 0.00 50 1012.9